Home > Time Zones > World Clock > Weather > Italy > Monza > Past weeks

Flag for Italy Weather past 2 weeks in Monza, Italy

Now
77 °F

Scattered clouds.


Feels Like: 78 °F
Forecast: 56 / 76 °F
Wind: 6 mph from South

Location: Milan / Linate

Current Time: May 29, 2015 at 6:49:17 PM

Latest Report: May 29, 2015 at 5:50 PM


Visibility: N/A

Pressure: 29.92 "Hg

Humidity: 42%

Dew point: 52 °F

Location of MonzaLocation

Historic Weather in Monza — Graph

°F

Monza temperature yesterday

Maximum temperature yesterday: 77 °F (at 5:50 PM)
Minimum temperature yesterday: 57 °F (at 2:50 AM)
Average temperature yesterday: 66 °F

Past Weeks' High & Low Weather Summary

 TemperatureHumidityPressure
High84 °F (May 14, 5:20 PM)100% (May 15, 10:20 PM)30.12 "Hg (May 15, 10:20 PM)
Low50 °F (May 21, 5:50 AM)34% (May 25, 6:50 PM)29.56 "Hg (May 15, 12:20 PM)
Average66 °F70%29.91 "Hg
* Reported May 14 5:20 PM — May 29 5:50 PM, Monza, Weather by CustomWeather, © 2015

Note: Actual official high and low records may vary slightly from our data, if they occured in-between our weather recording intervals... More about our weather records

Advertising

Monza weather history for previous 24 hours

 ConditionsComfort  
Time TempWeatherWind HumidityBarometerVisibility
5:50 PM
Fri, May 29
77 °FScattered clouds.6 mph42%29.92 "HgN/A
5:20 PM75 °FPassing clouds.7 mph41%29.92 "HgN/A
4:50 PM77 °FPassing clouds.2 mph39%29.92 "HgN/A
4:20 PM75 °FPassing clouds.7 mph41%29.92 "HgN/A
3:50 PM77 °FPassing clouds.3 mph39%29.95 "HgN/A
3:20 PM75 °FPassing clouds.5 mph44%29.95 "HgN/A
2:50 PM75 °FPassing clouds.6 mph44%29.95 "HgN/A
2:20 PM75 °FPassing clouds.6 mph47%29.98 "HgN/A
1:50 PM73 °FSunny.5 mph47%29.98 "Hg10 mi
1:20 PM72 °FPassing clouds.6 mph50%29.98 "HgN/A
12:50 PM72 °FScattered clouds.3 mph47%30.01 "HgN/A
12:20 PM72 °FScattered clouds.5 mph50%30.01 "HgN/A
11:50 AM70 °FScattered clouds.3 mph53%30.01 "HgN/A
11:20 AM70 °FPassing clouds.3 mph53%30.01 "HgN/A
10:50 AM70 °FPassing clouds.3 mph53%30.01 "HgN/A
10:20 AM68 °FScattered clouds.3 mph60%30.01 "HgN/A
9:50 AM66 °FScattered clouds.5 mph60%30.04 "HgN/A
9:20 AM66 °FScattered clouds.3 mph56%30.04 "HgN/A
8:50 AM64 °FPassing clouds.5 mph60%30.04 "HgN/A
8:20 AM63 °FPassing clouds.5 mph64%30.01 "HgN/A
7:50 AM63 °FPassing clouds.3 mph64%30.01 "HgN/A
7:20 AM61 °FPassing clouds.2 mph68%30.01 "HgN/A
6:50 AM61 °FPassing clouds.2 mph72%30.01 "HgN/A
6:20 AM59 °FPassing clouds.2 mph77%30.01 "Hg5 mi
5:50 AM59 °FPassing clouds.3 mph77%30.01 "Hg4 mi
5:20 AM61 °FPassing clouds.2 mph77%30.01 "HgN/A
4:50 AM59 °FPassing clouds.1 mph82%30.01 "HgN/A
4:20 AM59 °FPassing clouds.3 mph82%30.01 "HgN/A
3:50 AM61 °FPassing clouds.2 mph72%30.01 "HgN/A
3:20 AM61 °FPassing clouds.2 mph77%30.01 "HgN/A
2:50 AM63 °FPassing clouds.3 mph68%30.01 "HgN/A
2:20 AM63 °FPassing clouds.3 mph64%30.01 "HgN/A
1:50 AM64 °FPassing clouds.3 mph60%30.01 "HgN/A
12:50 AM64 °FPassing clouds.2 mph60%30.01 "HgN/A
11:50 PM
Thu, May 28
66 °FPassing clouds.5 mph64%30.01 "HgN/A
11:20 PM66 °FPassing clouds.3 mph68%30.01 "HgN/A
10:50 PM66 °FPassing clouds.5 mph68%30.01 "HgN/A
10:20 PM66 °FPassing clouds.2 mph68%30.01 "HgN/A
9:50 PM68 °FPassing clouds.3 mph60%29.98 "HgN/A
9:20 PM68 °FSunny.1 mph60%29.98 "Hg10 mi
8:50 PM70 °FSunny.2 mph57%29.98 "Hg10 mi
8:20 PM73 °FSunny.5 mph44%29.98 "Hg10 mi
7:50 PM75 °FPassing clouds.3 mph39%29.98 "HgN/A
7:20 PM75 °FPassing clouds.6 mph41%29.98 "HgN/A
6:50 PM75 °FPassing clouds.5 mph41%29.98 "HgN/A
6:20 PM77 °FPassing clouds.6 mph39%29.98 "HgN/A
Weather by CustomWeather, © 2015

See weather overviewHow to use our weather pages